Flag for U.S.A. Weather past 2 weeks in Cape Canaveral, Florida, U.S.A.

70 °F


Feels Like: 75 °F
Forecast: 69 / 77 °F
Wind: 10 mph from East

Location: Cape Kennedy

Current Time: Nov 25, 2015 at 12:03:47 AM

Latest Report: Nov 24, 2015 at 10:58 PM

Visibility: 10 mi

Pressure: 30.26 "Hg

Humidity: 63%

Dew point: 57 °F

Location of Cape CanaveralLocation

Historic Weather in Cape Canaveral — Graph


Cape Canaveral temperature yesterday

Maximum temperature yesterday: 70 °F (at 9:58 PM)
Minimum temperature yesterday: 66 °F (at 12:58 AM)
Average temperature yesterday: 68 °F

Past Weeks' High & Low Weather Summary

High90 °F (Nov 12, 12:58 PM)100% (Nov 22, 3:58 AM)30.29 "Hg (Nov 22, 3:58 AM)
Low53 °F (Nov 23, 6:58 AM)54% (Nov 16, 11:58 AM)29.82 "Hg (Nov 22, 1:58 PM)
Average74 °F78%30.06 "Hg
* Reported Nov 9 9:58 PM — Nov 24 9:58 PM, Cape Canaveral, Weather by CustomWeather, © 2015

Note: Actual official high and low records may vary slightly from our data, if they occured in-between our weather recording intervals... More about our weather records


Cape Canaveral weather history for previous 24 hours

Time TempWeatherWind HumidityBarometerVisibility
9:58 PM
Tue, Nov 24
70 °FPassing clouds.14 mph64%30.26 "Hg10 mi
8:58 PM70 °FPassing clouds.12 mph61%30.26 "Hg10 mi
7:58 PM70 °FPassing clouds.15 mph62%30.24 "Hg10 mi
6:58 PM69 °FPassing clouds.12 mph63%30.24 "Hg10 mi
5:58 PM69 °FOvercast.12 mph60%30.22 "Hg10 mi
4:58 PM69 °FPartly sunny.10 mph63%30.23 "Hg10 mi
3:58 PM68 °FPassing clouds.12 mph66%30.22 "Hg10 mi
2:58 PM70 °FPassing clouds.9 mph61%30.21 "Hg10 mi
1:58 PM70 °FPassing clouds.9 mph61%30.22 "Hg10 mi
12:58 PM69 °FSunny.10 mph64%30.24 "Hg10 mi
11:58 AM70 °FPassing clouds.13 mph64%30.26 "Hg10 mi
10:58 AM69 °FSunny.9 mph63%30.28 "Hg10 mi
9:58 AM69 °FPassing clouds.10 mph63%30.27 "Hg10 mi
8:58 AM68 °FPassing clouds.7 mph63%30.26 "Hg10 mi
7:58 AM67 °FScattered clouds.13 mph60%30.24 "Hg10 mi
6:58 AM67 °FScattered clouds.10 mph65%30.23 "Hg10 mi
5:58 AM67 °FPassing clouds.7 mph60%30.22 "Hg10 mi
4:58 AM66 °FPassing clouds.6 mph59%30.19 "Hg10 mi
3:58 AM67 °FPassing clouds.12 mph62%30.19 "Hg10 mi
2:58 AM67 °FPassing clouds.10 mph65%30.18 "Hg10 mi
1:58 AM67 °FPassing clouds.12 mph66%30.19 "Hg10 mi
12:58 AM66 °FPassing clouds.7 mph60%30.20 "Hg10 mi
Weather by CustomWeather, © 2015

See weather overviewHow to use our weather pages